Location: Hurstbourne Priors
(51.2000°N, 1.3667°W)
Time: 20:35:15
(UTC+00:00)

Transit 4A - Pass Details

Date: 23 April 2021
Orbit: 870 x 974 km, 66.8° (Epoch: 09 May)

Event Time Altitude Azimuth Distance (km) Brightness Sun altitude
Rises 21:58:11 0° 183° (S) 3,622 - -20.4°
Reaches altitude 10° 22:00:59 10° 174° (S) 2,667 - -20.6°
Exits shadow 22:06:23 33° 113° (ESE) 1,521 8.6 -21.1°
Maximum altitude 22:06:26 33° 113° (ESE) 1,521 8.6 -21.1°
Drops below altitude 10° 22:11:46 10° 51° (NE) 2,620 10.4 -21.5°
Sets 22:14:29 0° 42° (NE) 3,549 11.2 -21.7°
